Location: Gu�tanj
(46.5431°N, 14.9692°E)
Time: 05:22:27
(UTC+00:00)

Cosmos 2278 Rocket - Pass Details

Date: 03 March 2021
Orbit: 841 x 845 km, 71.0° (Epoch: 18 April)

Event Time Altitude Azimuth Distance (km) Brightness Sun altitude
Rises 20:24:30 0° 328° (NNW) 3,414 6.2 -36.2°
Reaches altitude 10° 20:27:02 10° 323° (NW) 2,474 5.3 -36.6°
Enters shadow 20:30:23 33° 301° (WNW) 1,389 3.7 -37.1°
